STARLINK-30987, 58487

Orbit data source: Space-Track

STARLINK-30987, 58487 is a payload satellite owned by SpaceX/Seattle (US) in LEO that was launched on Sun, 03 Dec 2023 UTC via an FALCON 9 launch vehicle from the Air Force Eastern Test Range (AFETR). Payload-class satellites include a variety of spacecraft equipped with specific instruments for various scientific and technological missions. These include communications satellites like Starlink; space stations such as the ISS; scientific satellites like the Hubble; Earth observation satellites from companies like Planet Labs, Umbra, and HawkEye 360; GPS; miniature CubeSats for education and research; and military/defense satellites.

Loading next visibility...
Identifier
58487, 2023-186Q
Orbit
LEO
Country
Flag of USUS
Related business
Manufacturer
SpaceX/Seattle
Mission
Operational Commercial Communications
Bus & Motor
STARLINK V2M, Unknown motor
Mass
730 kg wet, ~700 kg dry
Launch date (UTC)
2023-12-03 (3 years ago)
Launch vehicle
FALCON 9
Launch site
Air Force Eastern Test Range (AFETR)
Object type
Payload
Rocket body
Debris
Shape & HBR
Box + 2 Pan, 17.7 m
Radar Cross Section
33.884 m², Large (>1 m²)

Expand to show TLE details & history
Last TLE update: 2 days ago

TLE from 2 days ago
0 STARLINK-30987
1 58487U 23186Q   26171.14563201  .00001503  00000-0  64146-4 0  9995
2 58487  43.0040 205.1914 0001498 279.6965  80.3717 15.27578538141556
Epoch: 2026-06-20T03:29Z
TLE epoch observation values (Epoch: 2026-06-20T03:29:42.605Z)
Latitude
-0.00006°
Longitude
-115.60064°
Altitude
482.658 km
Speed
7.626 km/s
True Right ascension
13h 40m 45s
True Declination
0° 00' 00"
Sunlit
Object was in full shadow at epoch
Visualization orbit readout
Latitude
Unknown
Longitude
Unknown
Altitude
Unknown
Speed
Unknown
Apparent Right ascension
Unknown
Apparent Declination
Unknown
Sunlit
N/A
Visualization observer readout
Local Sidereal Time
21:24:44
Azimuth
Unknown
Elevation
Unknown
Doppler factor
Unknown
Orbital elements
Apogee altitude
486.026 km
Perigee altitude
483.97 km
Semi-major axis
6,863.135 km
Eccentricity
0.00015
Inclination
43.004°
RAAN
205.1914°
Arg. of periapsis
279.6965°
True anomaly
80.38862°
Mean anomaly
80.3717°
Eccentric anomaly
80.38016°
Mean motion
3.81733 °/min
Orbital period
94.31 mins
BSTAR
0.000064146
Loading maneuver chart data...
Computing Atmospheric mass density...
Loading historical data...
Loading historical data...
Loading historical data...
Loading historical data...
Loading historical data...
Loading historical data...
Loading historical data...

Documentation

Showing up to 5 results
|